Overview Statistics Trail Chart Weather Telemetry Raw packets
 

This is the latest recevied weather packets stored in our database for station/object DL2AKT-20. If no packets are shown the sender has not sent any weather packets the latest 10 day(s).

<< 28 29 30 31 32 33 34 >>
Time Temp. Humidity Pressure Rain* Wind** Luminosity Snow
1777534466 12.78° C 24% 1033.8 hPa - - - -
1777533566 12.78° C 25% 1033.9 hPa - - - -
1777532666 11.67° C 27% 1033.9 hPa - - - -
1777531767 11.11° C 29% 1033.9 hPa - - - -
1777530867 10.56° C 30% 1033.9 hPa - - - -
1777529967 10.56° C 32% 1033.8 hPa - - - -
1777529067 10° C 32% 1033.8 hPa - - - -
1777528167 9.44° C 33% 1033.8 hPa - - - -
1777527266 8.89° C 33% 1033.6 hPa - - - -
1777526366 8.89° C 33% 1033.5 hPa - - - -
1777525466 8.33° C 34% 1033.3 hPa - - - -
1777524566 8.89° C 34% 1033.3 hPa - - - -
1777523666 8.33° C 33% 1033 hPa - - - -
1777522766 8.33° C 34% 1033 hPa - - - -
1777521866 8.33° C 33% 1032.8 hPa - - - -
1777520966 8.33° C 34% 1032.9 hPa - - - -
1777520066 8.33° C 33% 1032.9 hPa - - - -
1777519166 7.78° C 33% 1032.9 hPa - - - -
1777518266 8.33° C 33% 1032.9 hPa - - - -
1777517365 8.33° C 33% 1032.8 hPa - - - -
1777516465 8.33° C 33% 1032.8 hPa - - - -
1777515565 8.89° C 33% 1032.9 hPa - - - -
1777514665 8.33° C 33% 1032.9 hPa - - - -
1777513765 8.33° C 33% 1032.8 hPa - - - -
1777512864 8.33° C 33% 1032.7 hPa - - - -

* Rain since midnight (hover to see other rain measurements)
** Current wind speed in m/s (hover to see current wind gust speed)